Time,TemperatureF,DewpointF,PressureIn,WindDirection,WindDirectionDegrees,WindSpeedMPH,WindSpeedGustMPH,Humidity,HourlyPrecipIn,Conditions,Clouds,dailyrainin,SoftwareType,DateUTC
2013-07-12 00:01:00,72.7,72.4,29.24,NE,49,0.0,0.0,99,0.00,RA,,0.00,WeatherDisplay:10.37,2013-07-12 04:01:00,
2013-07-12 00:06:00,72.5,72.2,29.25,NE,48,0.0,0.0,99,0.00,RA,,0.00,WeatherDisplay:10.37,2013-07-12 04:06:00,
2013-07-12 00:11:00,72.5,72.2,29.25,SW,215,0.0,0.0,99,0.00,CLR,,0.00,WeatherDisplay:10.37,2013-07-12 04:11:00,
2013-07-12 00:16:00,72.5,72.2,29.25,East,86,1.1,1.1,99,0.00,CLR,,0.00,WeatherDisplay:10.37,2013-07-12 04:16:00,
2013-07-12 00:21:00,72.3,72.0,29.27,WSW,258,0.0,0.0,99,0.00,CLR,,0.00,WeatherDisplay:10.37,2013-07-12 04:21:00,
2013-07-12 00:27:00,72.3,72.0,29.27,WSW,247,0.0,0.0,99,0.00,CLR,,0.00,WeatherDisplay:10.37,2013-07-12 04:27:00,
2013-07-12 00:32:00,72.3,72.0,29.27,WSW,241,0.0,0.0,99,0.00,CLR,,0.00,WeatherDisplay:10.37,2013-07-12 04:32:00,
2013-07-12 00:37:00,72.3,72.0,29.28,WSW,241,0.0,0.0,99,0.00,CLR,,0.00,WeatherDisplay:10.37,2013-07-12 04:37:00,
2013-07-12 00:42:00,72.5,72.2,29.28,WSW,241,0.0,0.0,99,0.00,CLR,,0.00,WeatherDisplay:10.37,2013-07-12 04:42:00,
2013-07-12 00:47:00,72.5,72.2,29.28,WSW,241,0.0,0.0,99,0.00,CLR,,0.00,WeatherDisplay:10.37,2013-07-12 04:47:00,
2013-07-12 00:52:00,72.5,72.2,29.27,WSW,241,0.0,0.0,99,0.00,CLR,,0.00,WeatherDisplay:10.37,2013-07-12 04:52:00,
2013-07-12 00:57:00,72.5,72.2,29.27,WSW,241,0.0,0.0,99,0.00,CLR,,0.00,WeatherDisplay:10.37,2013-07-12 04:57:00,
2013-07-12 01:02:00,72.3,72.0,29.27,WSW,241,0.0,0.0,99,0.00,CLR,,0.00,WeatherDisplay:10.37,2013-07-12 05:02:00,
2013-07-12 01:07:00,72.3,72.0,29.26,SW,233,0.0,0.0,99,0.00,CLR,,0.00,WeatherDisplay:10.37,2013-07-12 05:07:00,
2013-07-12 01:12:00,72.3,72.0,29.26,SW,233,1.1,0.0,99,0.00,CLR,,0.00,WeatherDisplay:10.37,2013-07-12 05:12:00,
2013-07-12 01:17:00,72.3,72.0,29.26,SSW,208,3.5,0.0,99,0.00,CLR,,0.00,WeatherDisplay:10.37,2013-07-12 05:17:00,
2013-07-12 01:22:00,72.3,72.0,29.26,WSW,241,3.5,3.5,99,0.00,CLR,,0.00,WeatherDisplay:10.37,2013-07-12 05:22:00,
2013-07-12 01:27:00,72.1,71.8,29.26,WSW,241,8.1,8.1,99,0.00,CLR,,0.00,WeatherDisplay:10.37,2013-07-12 05:27:00,
2013-07-12 01:32:00,72.1,71.8,29.26,WSW,257,0.0,0.0,99,0.00,CLR,,0.00,WeatherDisplay:10.37,2013-07-12 05:32:00,
2013-07-12 01:37:00,72.1,71.8,29.25,WSW,257,0.0,0.0,99,0.00,CLR,,0.00,WeatherDisplay:10.37,2013-07-12 05:37:00,
2013-07-12 01:42:00,72.0,71.7,29.25,WSW,257,0.0,0.0,99,0.00,CLR,,0.00,WeatherDisplay:10.37,2013-07-12 05:42:00,
2013-07-12 01:47:00,71.8,71.5,29.25,WSW,254,10.4,10.4,99,0.00,CLR,,0.00,WeatherDisplay:10.37,2013-07-12 05:47:00,
2013-07-12 01:52:00,71.8,71.5,29.24,SW,232,0.0,0.0,99,0.00,CLR,,0.00,WeatherDisplay:10.37,2013-07-12 05:52:00,
2013-07-12 01:57:00,71.8,71.5,29.24,South,189,2.3,2.3,99,0.00,CLR,,0.00,WeatherDisplay:10.37,2013-07-12 05:57:00,
2013-07-12 02:02:00,71.6,71.3,29.24,WSW,258,3.5,3.5,99,0.00,CLR,,0.00,WeatherDisplay:10.37,2013-07-12 06:02:00,
2013-07-12 02:07:00,71.6,71.3,29.24,WSW,243,0.0,0.0,99,0.00,CLR,,0.00,WeatherDisplay:10.37,2013-07-12 06:07:00,
2013-07-12 02:12:00,71.6,71.3,29.24,WSW,243,0.0,0.0,99,0.00,CLR,,0.00,WeatherDisplay:10.37,2013-07-12 06:12:00,
2013-07-12 02:17:00,71.6,71.3,29.24,WSW,243,0.0,0.0,99,0.00,CLR,,0.00,WeatherDisplay:10.37,2013-07-12 06:17:00,
2013-07-12 02:22:00,71.5,71.2,29.24,WSW,243,1.1,1.1,99,0.00,CLR,,0.00,WeatherDisplay:10.37,2013-07-12 06:22:00,
2013-07-12 02:27:00,71.5,71.2,29.24,WSW,243,0.0,0.0,99,0.00,CLR,,0.00,WeatherDisplay:10.37,2013-07-12 06:27:00,
2013-07-12 02:32:00,71.5,71.2,29.24,WSW,243,0.0,0.0,99,0.00,CLR,,0.00,WeatherDisplay:10.37,2013-07-12 06:32:00,
2013-07-12 02:37:00,71.5,71.2,29.24,WSW,243,0.0,0.0,99,0.00,CLR,,0.00,WeatherDisplay:10.37,2013-07-12 06:37:00,
2013-07-12 02:42:00,71.5,71.2,29.24,WSW,243,0.0,0.0,99,0.00,CLR,,0.00,WeatherDisplay:10.37,2013-07-12 06:42:00,
2013-07-12 02:47:00,71.5,71.2,29.24,WSW,243,0.0,0.0,99,0.00,CLR,,0.00,WeatherDisplay:10.37,2013-07-12 06:47:00,
2013-07-12 02:52:00,71.5,71.2,29.25,WSW,243,0.0,0.0,99,0.00,CLR,,0.00,WeatherDisplay:10.37,2013-07-12 06:52:00,
2013-07-12 02:57:00,71.5,71.2,29.25,WSW,243,0.0,0.0,99,0.00,CLR,,0.00,WeatherDisplay:10.37,2013-07-12 06:57:00,
2013-07-12 03:02:00,71.3,71.0,29.25,WSW,243,0.0,0.0,99,0.00,CLR,,0.00,WeatherDisplay:10.37,2013-07-12 07:02:00,
2013-07-12 03:07:00,71.5,71.2,29.25,WSW,243,0.0,0.0,99,0.00,CLR,,0.00,WeatherDisplay:10.37,2013-07-12 07:07:00,
2013-07-12 03:12:00,71.5,71.2,29.25,WSW,243,0.0,0.0,99,0.00,CLR,,0.00,WeatherDisplay:10.37,2013-07-12 07:12:00,
2013-07-12 03:17:00,71.5,71.2,29.25,WSW,243,0.0,0.0,99,0.00,CLR,,0.00,WeatherDisplay:10.37,2013-07-12 07:17:00,
2013-07-12 03:22:00,71.3,71.0,29.24,WSW,243,0.0,0.0,99,0.00,CLR,,0.00,WeatherDisplay:10.37,2013-07-12 07:22:00,
2013-07-12 03:27:00,71.5,71.2,29.24,WSW,243,0.0,0.0,99,0.00,CLR,,0.00,WeatherDisplay:10.37,2013-07-12 07:27:00,
2013-07-12 03:32:00,71.3,71.0,29.24,WSW,243,1.1,0.0,99,0.00,CLR,,0.00,WeatherDisplay:10.37,2013-07-12 07:32:00,
2013-07-12 03:37:00,71.3,71.0,29.24,WSW,243,2.3,2.3,99,0.00,CLR,,0.00,WeatherDisplay:10.37,2013-07-12 07:37:00,
2013-07-12 03:42:00,71.3,71.0,29.24,WSW,243,0.0,0.0,99,0.00,CLR,,0.00,WeatherDisplay:10.37,2013-07-12 07:42:00,
2013-07-12 03:47:00,71.3,71.0,29.24,WSW,243,0.0,0.0,99,0.00,CLR,,0.00,WeatherDisplay:10.37,2013-07-12 07:47:00,
2013-07-12 03:52:00,71.3,71.0,29.24,WSW,243,0.0,0.0,99,0.00,CLR,,0.00,WeatherDisplay:10.37,2013-07-12 07:52:00,
2013-07-12 03:57:00,71.3,71.0,29.24,WSW,243,0.0,0.0,99,0.00,CLR,,0.00,WeatherDisplay:10.37,2013-07-12 07:57:00,
2013-07-12 04:02:00,71.3,71.0,29.24,WSW,243,0.0,0.0,99,0.00,CLR,,0.00,WeatherDisplay:10.37,2013-07-12 08:02:00,
2013-07-12 04:07:00,71.3,71.0,29.23,WSW,243,0.0,0.0,99,0.00,CLR,,0.00,WeatherDisplay:10.37,2013-07-12 08:07:00,
2013-07-12 04:12:00,71.3,71.0,29.23,WSW,243,0.0,0.0,99,0.00,CLR,,0.00,WeatherDisplay:10.37,2013-07-12 08:12:00,
2013-07-12 04:17:00,71.3,71.0,29.23,WSW,243,0.0,0.0,99,0.00,CLR,,0.00,WeatherDisplay:10.37,2013-07-12 08:17:00,
2013-07-12 04:22:00,71.3,71.0,29.23,WSW,243,2.3,2.3,99,0.00,CLR,,0.00,WeatherDisplay:10.37,2013-07-12 08:22:00,
2013-07-12 04:27:00,71.3,71.0,29.23,WSW,243,0.0,0.0,99,0.00,CLR,,0.00,WeatherDisplay:10.37,2013-07-12 08:27:00,
2013-07-12 04:32:00,71.3,71.0,29.23,WSW,243,0.0,0.0,99,0.00,CLR,,0.00,WeatherDisplay:10.37,2013-07-12 08:32:00,
2013-07-12 04:37:00,71.3,71.0,29.24,WSW,243,0.0,0.5,99,0.00,CLR,,0.00,WeatherDisplay:10.37,2013-07-12 08:37:00,
2013-07-12 04:42:00,71.1,70.8,29.24,WSW,243,0.0,0.0,99,0.00,CLR,,0.00,WeatherDisplay:10.37,2013-07-12 08:42:00,
2013-07-12 04:47:00,71.1,70.8,29.24,WSW,243,0.0,0.0,99,0.00,CLR,,0.00,WeatherDisplay:10.37,2013-07-12 08:47:00,
2013-07-12 04:52:00,71.3,71.0,29.25,WSW,243,1.1,0.0,99,0.00,CLR,,0.00,WeatherDisplay:10.37,2013-07-12 08:52:00,
2013-07-12 04:57:00,71.3,71.0,29.25,WSW,243,0.0,0.0,99,0.00,CLR,,0.00,WeatherDisplay:10.37,2013-07-12 08:57:00,
2013-07-12 05:02:00,71.3,71.0,29.25,WSW,243,0.0,0.0,99,0.00,CLR,,0.00,WeatherDisplay:10.37,2013-07-12 09:02:00,
2013-07-12 05:07:00,71.3,71.0,29.25,WSW,243,0.0,0.0,99,0.00,CLR,,0.00,WeatherDisplay:10.37,2013-07-12 09:07:00,
2013-07-12 05:12:00,71.3,71.0,29.25,WSW,243,0.0,0.0,99,0.01,RA,,0.01,WeatherDisplay:10.37,2013-07-12 09:12:00,
2013-07-12 05:17:00,71.3,71.0,29.25,WSW,243,0.0,0.0,99,0.01,RA,,0.01,WeatherDisplay:10.37,2013-07-12 09:17:00,
2013-07-12 05:22:00,71.3,71.0,29.25,WSW,243,0.0,0.0,99,0.01,CLR,,0.01,WeatherDisplay:10.37,2013-07-12 09:22:00,
2013-07-12 05:27:00,71.3,71.0,29.25,WSW,243,0.0,0.0,99,0.01,CLR,,0.01,WeatherDisplay:10.37,2013-07-12 09:27:00,
2013-07-12 05:32:00,71.3,71.0,29.25,WSW,243,0.0,0.0,99,0.01,CLR,,0.01,WeatherDisplay:10.37,2013-07-12 09:32:00,
2013-07-12 05:37:00,71.3,71.0,29.25,WSW,243,0.0,0.0,99,0.01,CLR,,0.01,WeatherDisplay:10.37,2013-07-12 09:37:00,
2013-07-12 05:42:00,71.1,70.8,29.25,WSW,243,0.0,0.0,99,0.01,CLR,,0.01,WeatherDisplay:10.37,2013-07-12 09:42:00,
2013-07-12 05:47:00,71.1,70.8,29.25,WSW,243,0.0,0.0,99,0.01,CLR,,0.01,WeatherDisplay:10.37,2013-07-12 09:47:00,
2013-07-12 05:52:00,71.1,70.8,29.26,WSW,243,0.0,0.0,99,0.01,CLR,,0.01,WeatherDisplay:10.37,2013-07-12 09:52:00,
2013-07-12 05:57:00,71.3,71.0,29.26,WSW,243,0.0,0.0,99,0.01,CLR,,0.01,WeatherDisplay:10.37,2013-07-12 09:57:00,
2013-07-12 06:02:00,71.3,71.0,29.26,WSW,254,0.0,0.0,99,0.01,CLR,,0.01,WeatherDisplay:10.37,2013-07-12 10:02:00,
2013-07-12 06:07:00,71.3,71.0,29.26,WSW,254,0.0,0.0,99,0.01,CLR,,0.01,WeatherDisplay:10.37,2013-07-12 10:07:00,
2013-07-12 06:12:00,71.5,71.2,29.26,SSE,148,0.0,0.0,99,0.00,CLR,,0.01,WeatherDisplay:10.37,2013-07-12 10:12:00,
2013-07-12 06:17:00,71.3,71.0,29.26,SW,236,0.0,0.0,99,0.00,CLR,,0.01,WeatherDisplay:10.37,2013-07-12 10:17:00,
2013-07-12 06:22:00,71.3,71.0,29.26,NNW,343,0.0,0.0,99,0.00,CLR,,0.01,WeatherDisplay:10.37,2013-07-12 10:22:00,
2013-07-12 06:27:00,71.3,71.0,29.26,NNW,336,0.0,0.0,99,0.00,CLR,,0.01,WeatherDisplay:10.37,2013-07-12 10:27:00,
2013-07-12 06:32:00,71.3,71.0,29.26,NNW,337,0.0,0.0,99,0.00,CLR,,0.01,WeatherDisplay:10.37,2013-07-12 10:32:00,
2013-07-12 06:37:00,71.5,71.2,29.26,NNW,337,0.0,0.0,99,0.00,CLR,,0.01,WeatherDisplay:10.37,2013-07-12 10:37:00,
2013-07-12 06:42:00,71.5,71.2,29.26,NNW,347,0.0,0.0,99,0.00,CLR,,0.01,WeatherDisplay:10.37,2013-07-12 10:42:00,
2013-07-12 06:47:00,71.6,71.3,29.26,East,96,0.0,0.0,99,0.00,CLR,,0.01,WeatherDisplay:10.37,2013-07-12 10:47:00,
2013-07-12 06:52:00,71.6,71.3,29.26,NNE,20,3.5,3.5,99,0.00,CLR,,0.01,WeatherDisplay:10.37,2013-07-12 10:52:00,
2013-07-12 06:57:00,71.1,70.8,29.26,North,8,3.5,3.5,99,0.00,CLR,,0.01,WeatherDisplay:10.37,2013-07-12 10:57:00,
2013-07-12 07:02:00,70.8,70.5,29.26,NNE,25,0.0,0.0,99,0.00,CLR,,0.01,WeatherDisplay:10.37,2013-07-12 11:02:00,
2013-07-12 07:07:00,70.8,70.5,29.26,ESE,109,0.0,0.0,99,0.00,CLR,,0.01,WeatherDisplay:10.37,2013-07-12 11:07:00,
2013-07-12 07:12:00,70.9,70.6,29.26,NNE,13,0.0,0.0,99,0.00,CLR,,0.01,WeatherDisplay:10.37,2013-07-12 11:12:00,
2013-07-12 07:17:00,70.9,70.6,29.26,NNE,13,0.0,0.0,99,0.00,CLR,,0.01,WeatherDisplay:10.37,2013-07-12 11:17:00,
2013-07-12 07:22:00,70.9,70.6,29.26,NNE,13,0.0,0.0,99,0.00,CLR,,0.01,WeatherDisplay:10.37,2013-07-12 11:22:00,
2013-07-12 07:27:00,71.1,70.8,29.26,NNE,13,0.0,0.0,99,0.00,CLR,,0.01,WeatherDisplay:10.37,2013-07-12 11:27:00,
2013-07-12 07:32:00,71.1,70.8,29.26,NNE,13,1.1,0.0,99,0.00,CLR,,0.01,WeatherDisplay:10.37,2013-07-12 11:32:00,
2013-07-12 07:37:00,71.1,70.8,29.26,NNE,13,0.0,0.0,99,0.00,CLR,,0.01,WeatherDisplay:10.37,2013-07-12 11:37:00,
2013-07-12 07:42:00,70.9,70.6,29.26,NNE,13,0.0,0.0,99,0.00,CLR,,0.01,WeatherDisplay:10.37,2013-07-12 11:42:00,
2013-07-12 07:47:00,71.1,70.8,29.26,NNE,13,0.0,0.0,99,0.00,CLR,,0.01,WeatherDisplay:10.37,2013-07-12 11:47:00,
2013-07-12 07:52:00,71.1,70.8,29.26,NNE,13,0.0,0.0,99,0.00,CLR,,0.01,WeatherDisplay:10.37,2013-07-12 11:52:00,
2013-07-12 07:57:00,71.1,70.8,29.26,NNE,13,0.0,0.0,99,0.00,CLR,,0.01,WeatherDisplay:10.37,2013-07-12 11:57:00,
2013-07-12 08:02:00,70.9,70.6,29.26,NW,308,0.0,0.0,99,0.00,CLR,,0.01,WeatherDisplay:10.37,2013-07-12 12:02:00,
2013-07-12 08:07:00,70.9,70.6,29.27,North,0,0.0,0.0,99,0.00,CLR,,0.01,WeatherDisplay:10.37,2013-07-12 12:07:00,
2013-07-12 08:12:00,70.9,70.6,29.27,North,356,0.0,0.0,99,0.00,CLR,,0.01,WeatherDisplay:10.37,2013-07-12 12:12:00,
2013-07-12 08:17:00,70.9,70.6,29.27,NNW,340,0.0,0.0,99,0.00,CLR,,0.01,WeatherDisplay:10.37,2013-07-12 12:17:00,
2013-07-12 08:22:00,71.1,70.8,29.27,NNW,340,0.0,0.0,99,0.00,CLR,,0.01,WeatherDisplay:10.37,2013-07-12 12:22:00,
2013-07-12 08:27:00,71.1,70.8,29.27,NNW,340,0.0,0.0,99,0.00,CLR,,0.01,WeatherDisplay:10.37,2013-07-12 12:27:00,
2013-07-12 08:32:00,70.9,70.6,29.27,North,350,0.0,0.0,99,0.00,CLR,,0.01,WeatherDisplay:10.37,2013-07-12 12:32:00,
2013-07-12 08:37:00,70.4,70.1,29.28,North,350,0.0,0.0,99,0.00,CLR,,0.01,WeatherDisplay:10.37,2013-07-12 12:37:00,
2013-07-12 08:42:00,70.4,70.1,29.28,North,350,0.0,0.0,99,0.00,CLR,,0.01,WeatherDisplay:10.37,2013-07-12 12:42:00,
2013-07-12 08:47:00,70.6,70.3,29.28,North,350,0.0,0.0,99,0.00,CLR,,0.01,WeatherDisplay:10.37,2013-07-12 12:47:00,
2013-07-12 08:52:00,70.6,70.3,29.28,NNW,329,0.0,0.0,99,0.00,CLR,,0.01,WeatherDisplay:10.37,2013-07-12 12:52:00,
2013-07-12 08:57:00,70.9,70.6,29.28,NNE,25,0.0,0.0,99,0.00,CLR,,0.01,WeatherDisplay:10.37,2013-07-12 12:57:00,
2013-07-12 09:02:00,70.9,70.6,29.28,NNE,25,0.0,0.0,99,0.00,CLR,,0.01,WeatherDisplay:10.37,2013-07-12 13:02:00,
2013-07-12 09:07:00,70.9,70.6,29.28,NNE,25,0.0,0.0,99,0.00,CLR,,0.01,WeatherDisplay:10.37,2013-07-12 13:07:00,
2013-07-12 09:12:00,70.9,70.6,29.28,NNE,25,0.0,0.0,99,0.00,CLR,,0.01,WeatherDisplay:10.37,2013-07-12 13:12:00,
2013-07-12 09:17:00,70.9,70.6,29.28,NNE,25,0.0,0.0,99,0.00,CLR,,0.01,WeatherDisplay:10.37,2013-07-12 13:17:00,
2013-07-12 09:22:00,71.3,71.0,29.29,NNE,25,0.0,0.0,99,0.00,CLR,,0.01,WeatherDisplay:10.37,2013-07-12 13:22:00,
2013-07-12 09:27:00,71.3,70.7,29.29,NW,318,0.0,0.0,98,0.00,CLR,,0.01,WeatherDisplay:10.37,2013-07-12 13:27:00,
2013-07-12 09:32:00,71.3,70.7,29.29,WSW,246,0.0,0.0,98,0.00,CLR,,0.01,WeatherDisplay:10.37,2013-07-12 13:32:00,
2013-07-12 09:37:00,71.3,70.7,29.29,West,265,0.0,0.0,98,0.00,CLR,,0.01,WeatherDisplay:10.37,2013-07-12 13:37:00,
2013-07-12 09:42:00,71.3,70.4,29.29,WSW,251,0.0,0.0,97,0.00,CLR,,0.01,WeatherDisplay:10.37,2013-07-12 13:42:00,
2013-07-12 09:47:00,71.5,70.6,29.29,WSW,251,0.0,0.0,97,0.00,CLR,,0.01,WeatherDisplay:10.37,2013-07-12 13:47:00,
2013-07-12 09:52:00,71.8,70.9,29.29,WSW,251,0.0,0.0,97,0.00,CLR,,0.01,WeatherDisplay:10.37,2013-07-12 13:52:00,
2013-07-12 09:57:00,71.8,70.9,29.29,WSW,251,0.0,0.0,97,0.00,CLR,,0.01,WeatherDisplay:10.37,2013-07-12 13:57:00,
2013-07-12 10:02:00,71.6,70.4,29.29,East,82,0.0,0.0,96,0.00,CLR,,0.01,WeatherDisplay:10.37,2013-07-12 14:02:00,
2013-07-12 10:07:00,71.8,70.6,29.29,East,82,0.0,0.0,96,0.00,CLR,,0.01,WeatherDisplay:10.37,2013-07-12 14:07:00,
2013-07-12 10:12:00,71.6,70.4,29.29,East,82,0.0,0.0,96,0.00,CLR,,0.01,WeatherDisplay:10.37,2013-07-12 14:12:00,
2013-07-12 10:17:00,71.6,70.4,29.29,NE,37,0.0,0.0,96,0.00,CLR,,0.01,WeatherDisplay:10.37,2013-07-12 14:17:00,
2013-07-12 10:22:00,71.3,69.8,29.29,WSW,240,0.0,0.0,95,0.00,CLR,,0.01,WeatherDisplay:10.37,2013-07-12 14:22:00,
2013-07-12 10:27:00,71.3,69.8,29.29,WSW,240,0.0,0.0,95,0.00,CLR,,0.01,WeatherDisplay:10.37,2013-07-12 14:27:00,
2013-07-12 10:32:00,71.3,69.8,29.29,WSW,237,0.0,0.0,95,0.00,CLR,,0.01,WeatherDisplay:10.37,2013-07-12 14:32:00,
2013-07-12 10:37:00,71.5,70.0,29.30,SW,230,0.0,0.0,95,0.00,CLR,,0.01,WeatherDisplay:10.37,2013-07-12 14:37:00,
2013-07-12 10:42:00,71.3,69.5,29.30,SW,229,0.0,0.0,94,0.00,CLR,,0.01,WeatherDisplay:10.37,2013-07-12 14:42:00,
2013-07-12 10:47:00,71.1,69.3,29.30,WSW,239,0.0,0.0,94,0.00,CLR,,0.01,WeatherDisplay:10.37,2013-07-12 14:47:00,
2013-07-12 10:52:00,71.3,69.2,29.31,WSW,239,0.0,0.0,93,0.00,CLR,,0.01,WeatherDisplay:10.37,2013-07-12 14:52:00,
2013-07-12 10:57:00,71.3,69.2,29.31,WSW,239,0.0,0.0,93,0.00,CLR,,0.01,WeatherDisplay:10.37,2013-07-12 14:57:00,
2013-07-12 11:02:00,71.6,69.5,29.31,WSW,239,0.0,0.0,93,0.00,CLR,,0.01,WeatherDisplay:10.37,2013-07-12 15:02:00,
2013-07-12 11:07:00,72.0,69.9,29.31,North,3,3.0,3.0,93,0.00,CLR,,0.01,WeatherDisplay:10.37,2013-07-12 15:07:00,
2013-07-12 11:12:00,72.1,69.6,29.31,NNE,28,3.5,3.5,92,0.00,CLR,,0.01,WeatherDisplay:10.37,2013-07-12 15:12:00,
2013-07-12 11:17:00,72.3,69.5,29.31,NNE,18,4.6,4.6,91,0.00,CLR,,0.01,WeatherDisplay:10.37,2013-07-12 15:17:00,
2013-07-12 11:22:00,72.3,69.2,29.31,NNE,24,0.0,0.0,90,0.00,CLR,,0.01,WeatherDisplay:10.37,2013-07-12 15:22:00,
2013-07-12 11:27:00,72.5,69.1,29.31,NNE,31,5.8,5.8,89,0.00,CLR,,0.01,WeatherDisplay:10.37,2013-07-12 15:27:00,
2013-07-12 11:32:00,72.5,68.7,29.31,NE,54,3.5,3.5,88,0.00,CLR,,0.01,WeatherDisplay:10.37,2013-07-12 15:32:00,
2013-07-12 11:37:00,72.7,68.9,29.31,NE,44,0.0,0.0,88,0.00,CLR,,0.01,WeatherDisplay:10.37,2013-07-12 15:37:00,
2013-07-12 11:42:00,72.5,68.4,29.31,ENE,66,0.0,0.0,87,0.00,CLR,,0.01,WeatherDisplay:10.37,2013-07-12 15:42:00,
2013-07-12 11:47:00,72.8,68.7,29.31,NNE,16,3.5,3.5,87,0.00,CLR,,0.01,WeatherDisplay:10.37,2013-07-12 15:47:00,
2013-07-12 11:52:00,72.8,68.0,29.31,NE,48,0.0,0.0,85,0.00,CLR,,0.01,WeatherDisplay:10.37,2013-07-12 15:52:00,
2013-07-12 11:58:00,73.2,68.8,29.31,North,354,4.6,4.6,86,0.00,CLR,,0.01,WeatherDisplay:10.37,2013-07-12 15:58:00,
2013-07-12 12:03:00,73.3,68.5,29.31,NE,38,2.0,2.0,85,0.00,CLR,,0.01,WeatherDisplay:10.37,2013-07-12 16:03:00,
2013-07-12 12:08:00,73.5,68.4,29.31,NNE,18,3.5,3.5,84,0.00,CLR,,0.01,WeatherDisplay:10.37,2013-07-12 16:08:00,
2013-07-12 12:13:00,73.7,68.2,29.31,SE,143,3.5,3.5,83,0.00,CLR,,0.01,WeatherDisplay:10.37,2013-07-12 16:13:00,
2013-07-12 12:18:00,73.9,68.4,29.31,NE,44,3.0,3.0,83,0.00,CLR,,0.01,WeatherDisplay:10.37,2013-07-12 16:18:00,
2013-07-12 12:23:00,73.9,68.4,29.31,NE,49,2.3,2.3,83,0.00,CLR,,0.01,WeatherDisplay:10.37,2013-07-12 16:23:00,
2013-07-12 12:28:00,73.7,68.6,29.31,NE,56,5.8,5.8,84,0.01,RA,,0.02,WeatherDisplay:10.37,2013-07-12 16:28:00,
2013-07-12 12:33:00,73.5,68.4,29.31,NNE,32,0.0,0.0,84,0.01,RA,,0.02,WeatherDisplay:10.37,2013-07-12 16:33:00,
2013-07-12 12:38:00,73.9,69.1,29.31,ENE,61,4.6,4.6,85,0.01,CLR,,0.02,WeatherDisplay:10.37,2013-07-12 16:38:00,
2013-07-12 12:43:00,73.9,68.8,29.31,NNE,24,4.6,4.6,84,0.01,CLR,,0.02,WeatherDisplay:10.37,2013-07-12 16:43:00,
2013-07-12 12:48:00,73.9,68.8,29.31,North,354,5.8,5.8,84,0.01,CLR,,0.02,WeatherDisplay:10.37,2013-07-12 16:48:00,
2013-07-12 12:53:00,73.9,68.8,29.31,North,11,3.0,3.0,84,0.01,CLR,,0.02,WeatherDisplay:10.37,2013-07-12 16:53:00,
2013-07-12 12:59:00,73.9,68.4,29.31,North,353,0.0,0.0,83,0.01,CLR,,0.02,WeatherDisplay:10.37,2013-07-12 16:59:00,
2013-07-12 13:04:00,74.2,68.7,29.31,NE,48,0.0,0.4,83,0.01,CLR,,0.02,WeatherDisplay:10.37,2013-07-12 17:04:00,
2013-07-12 13:09:00,74.4,68.9,29.31,North,349,3.0,3.0,83,0.01,CLR,,0.02,WeatherDisplay:10.37,2013-07-12 17:09:00,
2013-07-12 13:14:00,74.4,67.8,29.31,North,4,3.5,3.5,80,0.01,CLR,,0.02,WeatherDisplay:10.37,2013-07-12 17:14:00,
2013-07-12 13:19:00,74.6,68.0,29.31,North,10,1.1,1.1,80,0.01,CLR,,0.02,WeatherDisplay:10.37,2013-07-12 17:19:00,
2013-07-12 13:24:00,74.7,68.1,29.31,ENE,62,0.0,0.0,80,0.01,CLR,,0.02,WeatherDisplay:10.37,2013-07-12 17:24:00,
2013-07-12 13:30:00,75.3,68.7,29.31,North,0,1.1,1.1,80,0.00,CLR,,0.02,WeatherDisplay:10.37,2013-07-12 17:30:00,
2013-07-12 13:37:00,74.9,68.7,29.31,North,0,5.8,5.8,81,0.00,CLR,,0.02,WeatherDisplay:10.37,2013-07-12 17:37:00,
2013-07-12 13:42:00,74.7,69.2,29.31,NNW,340,5.0,5.0,83,0.00,CLR,,0.02,WeatherDisplay:10.37,2013-07-12 17:42:00,
2013-07-12 13:47:00,74.4,68.5,29.31,North,359,8.1,8.1,82,0.00,CLR,,0.02,WeatherDisplay:10.37,2013-07-12 17:47:00,
2013-07-12 13:52:00,74.4,68.9,29.31,North,11,3.5,3.5,83,0.00,CLR,,0.02,WeatherDisplay:10.37,2013-07-12 17:52:00,
2013-07-12 13:58:00,74.2,69.1,29.31,North,6,6.9,6.9,84,0.00,CLR,,0.02,WeatherDisplay:10.37,2013-07-12 17:58:00,
2013-07-12 14:04:00,73.9,68.8,29.31,NE,48,5.8,5.8,84,0.00,CLR,,0.02,WeatherDisplay:10.37,2013-07-12 18:04:00,
2013-07-12 14:10:00,73.7,68.9,29.31,NE,37,2.3,2.3,85,0.00,CLR,,0.02,WeatherDisplay:10.37,2013-07-12 18:10:00,
2013-07-12 14:15:00,73.3,68.9,29.31,North,1,0.0,0.2,86,0.00,CLR,,0.02,WeatherDisplay:10.37,2013-07-12 18:15:00,
2013-07-12 14:20:00,73.2,68.8,29.31,North,0,3.5,3.5,86,0.00,CLR,,0.02,WeatherDisplay:10.37,2013-07-12 18:20:00,
2013-07-12 14:25:00,73.2,69.1,29.31,NW,326,0.0,0.0,87,0.00,CLR,,0.02,WeatherDisplay:10.37,2013-07-12 18:25:00,
2013-07-12 14:31:00,73.0,68.9,29.31,North,10,6.9,6.9,87,0.00,CLR,,0.02,WeatherDisplay:10.37,2013-07-12 18:31:00,
2013-07-12 14:37:00,72.8,68.7,29.32,North,357,5.8,5.8,87,0.00,CLR,,0.02,WeatherDisplay:10.37,2013-07-12 18:37:00,
2013-07-12 14:42:00,72.5,68.4,29.32,NE,48,0.0,0.6,87,0.00,CLR,,0.02,WeatherDisplay:10.37,2013-07-12 18:42:00,
2013-07-12 14:47:00,72.1,68.0,29.32,NNE,27,4.6,4.6,87,0.00,CLR,,0.02,WeatherDisplay:10.37,2013-07-12 18:47:00,
2013-07-12 14:52:00,72.0,68.2,29.32,NE,54,3.5,0.0,88,0.00,CLR,,0.02,WeatherDisplay:10.37,2013-07-12 18:52:00,
2013-07-12 14:58:00,72.0,67.9,29.32,NNE,20,3.5,3.5,87,0.00,CLR,,0.02,WeatherDisplay:10.37,2013-07-12 18:58:00,
2013-07-12 15:03:00,72.1,68.0,29.32,North,357,6.9,6.9,87,0.00,CLR,,0.02,WeatherDisplay:10.37,2013-07-12 19:03:00,
2013-07-12 15:08:00,72.3,68.2,29.32,North,356,0.0,0.0,87,0.00,CLR,,0.02,WeatherDisplay:10.37,2013-07-12 19:08:00,
2013-07-12 15:14:00,72.8,68.7,29.32,North,357,0.0,0.4,87,0.00,CLR,,0.02,WeatherDisplay:10.37,2013-07-12 19:14:00,
2013-07-12 15:19:00,73.0,68.2,29.32,North,0,6.9,6.9,85,0.00,CLR,,0.02,WeatherDisplay:10.37,2013-07-12 19:19:00,
2013-07-12 15:24:00,73.2,68.1,29.31,NE,42,0.0,0.0,84,0.00,CLR,,0.02,WeatherDisplay:10.37,2013-07-12 19:24:00,
2013-07-12 15:29:00,73.3,67.8,29.31,NW,320,0.0,0.0,83,0.00,CLR,,0.02,WeatherDisplay:10.37,2013-07-12 19:29:00,
2013-07-12 15:35:00,73.7,68.6,29.31,NW,316,0.0,0.0,84,0.00,CLR,,0.02,WeatherDisplay:10.37,2013-07-12 19:35:00,
2013-07-12 15:40:00,73.9,68.4,29.31,WNW,298,1.1,1.1,83,0.00,CLR,,0.02,WeatherDisplay:10.37,2013-07-12 19:40:00,
2013-07-12 15:45:00,74.0,68.5,29.31,NNW,347,1.1,1.4,83,0.00,CLR,,0.02,WeatherDisplay:10.37,2013-07-12 19:45:00,
2013-07-12 15:50:00,74.0,68.2,29.31,North,352,1.1,1.8,82,0.00,CLR,,0.02,WeatherDisplay:10.37,2013-07-12 19:50:00,
2013-07-12 15:55:00,74.2,68.3,29.31,NE,34,2.0,2.0,82,0.00,CLR,,0.02,WeatherDisplay:10.37,2013-07-12 19:55:00,
2013-07-12 16:01:00,74.4,68.5,29.31,North,7,4.6,4.6,82,0.00,CLR,,0.02,WeatherDisplay:10.37,2013-07-12 20:01:00,
2013-07-12 16:06:00,74.2,68.0,29.32,North,0,0.0,0.0,81,0.00,CLR,,0.02,WeatherDisplay:10.37,2013-07-12 20:06:00,
2013-07-12 16:11:00,74.4,68.5,29.32,North,357,0.0,0.0,82,0.00,CLR,,0.02,WeatherDisplay:10.37,2013-07-12 20:11:00,
2013-07-12 16:16:00,74.2,68.3,29.32,NNE,24,2.3,2.3,82,0.00,CLR,,0.02,WeatherDisplay:10.37,2013-07-12 20:16:00,
2013-07-12 16:21:00,74.0,68.2,29.32,North,10,0.0,0.0,82,0.00,CLR,,0.02,WeatherDisplay:10.37,2013-07-12 20:21:00,
2013-07-12 16:26:00,74.0,68.5,29.32,ESE,102,0.0,0.0,83,0.00,CLR,,0.02,WeatherDisplay:10.37,2013-07-12 20:26:00,
2013-07-12 16:31:00,74.0,68.2,29.32,NNE,23,0.0,0.5,82,0.00,CLR,,0.02,WeatherDisplay:10.37,2013-07-12 20:31:00,
2013-07-12 16:36:00,74.0,68.5,29.32,NNE,23,0.0,0.0,83,0.00,CLR,,0.02,WeatherDisplay:10.37,2013-07-12 20:36:00,
2013-07-12 16:41:00,74.0,68.5,29.32,NNE,23,0.0,0.0,83,0.00,CLR,,0.02,WeatherDisplay:10.37,2013-07-12 20:41:00,
2013-07-12 16:46:00,74.0,68.5,29.32,WNW,298,0.0,0.0,83,0.00,CLR,,0.02,WeatherDisplay:10.37,2013-07-12 20:46:00,
2013-07-12 16:51:00,74.0,68.9,29.32,NNW,335,0.0,0.0,84,0.00,CLR,,0.02,WeatherDisplay:10.37,2013-07-12 20:51:00,
2013-07-12 16:56:00,74.0,68.9,29.32,NNW,335,0.0,0.0,84,0.00,CLR,,0.02,WeatherDisplay:10.37,2013-07-12 20:56:00,
2013-07-12 17:01:00,73.9,68.8,29.32,NNW,335,0.0,0.0,84,0.00,CLR,,0.02,WeatherDisplay:10.37,2013-07-12 21:01:00,
2013-07-12 17:07:00,74.0,68.9,29.32,NNW,335,0.0,0.0,84,0.00,CLR,,0.02,WeatherDisplay:10.37,2013-07-12 21:07:00,
2013-07-12 17:13:00,73.9,69.1,29.32,North,357,0.0,0.0,85,0.00,CLR,,0.02,WeatherDisplay:10.37,2013-07-12 21:13:00,
2013-07-12 17:18:00,73.9,69.1,29.32,WNW,295,0.0,0.0,85,0.00,CLR,,0.02,WeatherDisplay:10.37,2013-07-12 21:18:00,
2013-07-12 17:23:00,73.9,69.1,29.32,WNW,295,0.0,0.0,85,0.00,CLR,,0.02,WeatherDisplay:10.37,2013-07-12 21:23:00,
2013-07-12 17:28:00,73.9,69.1,29.32,WNW,295,0.0,0.0,85,0.00,CLR,,0.02,WeatherDisplay:10.37,2013-07-12 21:28:00,
2013-07-12 17:33:00,73.7,68.9,29.32,WNW,295,0.0,0.0,85,0.00,CLR,,0.02,WeatherDisplay:10.37,2013-07-12 21:33:00,
2013-07-12 17:38:00,73.9,69.1,29.32,WNW,295,0.0,0.0,85,0.00,CLR,,0.02,WeatherDisplay:10.37,2013-07-12 21:38:00,
2013-07-12 17:44:00,73.7,69.2,29.32,North,4,0.0,0.0,86,0.00,CLR,,0.02,WeatherDisplay:10.37,2013-07-12 21:44:00,
2013-07-12 17:49:00,73.7,69.2,29.32,North,6,0.0,0.0,86,0.00,CLR,,0.02,WeatherDisplay:10.37,2013-07-12 21:49:00,
2013-07-12 17:54:00,73.7,69.2,29.31,North,6,0.0,0.0,86,0.00,CLR,,0.02,WeatherDisplay:10.37,2013-07-12 21:54:00,
2013-07-12 17:59:00,73.7,69.6,29.31,North,6,0.0,0.0,87,0.00,CLR,,0.02,WeatherDisplay:10.37,2013-07-12 21:59:00,
2013-07-12 18:04:00,73.5,69.4,29.31,SSE,160,0.0,0.0,87,0.00,CLR,,0.02,WeatherDisplay:10.37,2013-07-12 22:04:00,
2013-07-12 18:10:00,73.2,69.4,29.31,SSE,160,0.0,0.0,88,0.00,CLR,,0.02,WeatherDisplay:10.37,2013-07-12 22:10:00,
2013-07-12 18:15:00,73.0,69.2,29.31,NNE,31,3.5,0.0,88,0.00,CLR,,0.02,WeatherDisplay:10.37,2013-07-12 22:15:00,
2013-07-12 18:20:00,72.8,69.0,29.31,NNE,31,0.0,0.0,88,0.00,CLR,,0.02,WeatherDisplay:10.37,2013-07-12 22:20:00,
2013-07-12 18:26:00,73.0,69.2,29.32,NNW,346,0.0,0.0,88,0.00,CLR,,0.02,WeatherDisplay:10.37,2013-07-12 22:26:00,
2013-07-12 18:31:00,73.0,69.6,29.32,NNW,337,0.0,0.0,89,0.00,CLR,,0.02,WeatherDisplay:10.37,2013-07-12 22:31:00,
2013-07-12 18:36:00,73.0,69.2,29.32,North,0,2.3,0.0,88,0.00,CLR,,0.02,WeatherDisplay:10.37,2013-07-12 22:36:00,
2013-07-12 18:41:00,73.0,69.6,29.32,North,0,0.0,0.0,89,0.00,CLR,,0.02,WeatherDisplay:10.37,2013-07-12 22:41:00,
2013-07-12 18:46:00,73.0,69.6,29.32,North,0,3.5,3.5,89,0.00,CLR,,0.02,WeatherDisplay:10.37,2013-07-12 22:46:00,
2013-07-12 18:52:00,73.0,69.2,29.32,NE,52,0.0,0.0,88,0.01,RA,,0.03,WeatherDisplay:10.37,2013-07-12 22:52:00,
2013-07-12 18:57:00,72.8,69.4,29.32,NNW,340,0.0,0.0,89,0.01,RA,,0.03,WeatherDisplay:10.37,2013-07-12 22:57:00,
2013-07-12 19:02:00,73.0,69.6,29.32,NNE,14,0.0,0.0,89,0.01,CLR,,0.03,WeatherDisplay:10.37,2013-07-12 23:02:00,
2013-07-12 19:08:00,73.0,69.6,29.32,North,356,3.5,3.5,89,0.01,CLR,,0.03,WeatherDisplay:10.37,2013-07-12 23:08:00,
2013-07-12 19:13:00,72.8,69.4,29.32,ENE,69,2.3,2.3,89,0.01,CLR,,0.03,WeatherDisplay:10.37,2013-07-12 23:13:00,
2013-07-12 19:18:00,72.7,69.3,29.32,North,349,0.0,0.0,89,0.01,CLR,,0.03,WeatherDisplay:10.37,2013-07-12 23:18:00,
2013-07-12 19:23:00,72.5,69.1,29.33,North,0,0.0,0.0,89,0.01,CLR,,0.03,WeatherDisplay:10.37,2013-07-12 23:23:00,
2013-07-12 19:28:00,72.5,69.1,29.33,North,0,0.0,0.0,89,0.01,CLR,,0.03,WeatherDisplay:10.37,2013-07-12 23:28:00,
2013-07-12 19:33:00,72.3,68.9,29.33,North,0,0.0,0.0,89,0.01,CLR,,0.03,WeatherDisplay:10.37,2013-07-12 23:33:00,
2013-07-12 19:38:00,72.3,69.2,29.33,North,8,0.0,0.0,90,0.01,CLR,,0.03,WeatherDisplay:10.37,2013-07-12 23:38:00,
2013-07-12 19:44:00,72.3,69.2,29.33,NE,34,2.3,0.0,90,0.01,CLR,,0.03,WeatherDisplay:10.37,2013-07-12 23:44:00,
2013-07-12 19:49:00,72.1,69.0,29.33,NNE,14,0.0,0.0,90,0.01,CLR,,0.03,WeatherDisplay:10.37,2013-07-12 23:49:00,
2013-07-12 19:54:00,72.0,69.2,29.34,North,4,2.3,2.3,91,0.00,CLR,,0.03,WeatherDisplay:10.37,2013-07-12 23:54:00,
2013-07-12 19:59:00,72.0,69.2,29.34,North,4,0.0,0.0,91,0.00,CLR,,0.03,WeatherDisplay:10.37,2013-07-12 23:59:00,
2013-07-12 20:05:00,71.8,69.3,29.34,North,0,0.0,0.0,92,0.00,CLR,,0.03,WeatherDisplay:10.37,2013-07-13 00:05:00,
2013-07-12 20:10:00,71.8,69.3,29.34,North,357,1.1,1.1,92,0.00,CLR,,0.03,WeatherDisplay:10.37,2013-07-13 00:10:00,
2013-07-12 20:15:00,71.6,69.2,29.34,West,267,0.0,0.0,92,0.00,CLR,,0.03,WeatherDisplay:10.37,2013-07-13 00:15:00,
2013-07-12 20:20:00,71.6,69.2,29.34,NNE,31,0.0,0.3,92,0.00,CLR,,0.03,WeatherDisplay:10.37,2013-07-13 00:20:00,
2013-07-12 20:25:00,71.5,69.1,29.34,NE,45,0.0,0.0,92,0.00,CLR,,0.03,WeatherDisplay:10.37,2013-07-13 00:25:00,
2013-07-12 20:30:00,71.5,69.1,29.34,NE,44,0.0,0.0,92,0.00,CLR,,0.03,WeatherDisplay:10.37,2013-07-13 00:30:00,
2013-07-12 20:36:00,71.3,69.2,29.35,NE,44,0.0,0.0,93,0.00,CLR,,0.03,WeatherDisplay:10.37,2013-07-13 00:36:00,
2013-07-12 20:41:00,71.3,69.2,29.35,ENE,72,0.0,0.0,93,0.00,CLR,,0.03,WeatherDisplay:10.37,2013-07-13 00:41:00,
2013-07-12 20:46:00,71.1,69.0,29.35,West,264,0.0,0.0,93,0.00,CLR,,0.03,WeatherDisplay:10.37,2013-07-13 00:46:00,
2013-07-12 20:51:00,71.1,69.0,29.35,West,265,0.0,0.0,93,0.00,CLR,,0.03,WeatherDisplay:10.37,2013-07-13 00:51:00,
2013-07-12 20:56:00,70.9,68.8,29.35,West,265,0.0,0.0,93,0.00,CLR,,0.03,WeatherDisplay:10.37,2013-07-13 00:56:00,
2013-07-12 21:01:00,70.9,69.1,29.35,West,265,0.0,0.0,94,0.00,CLR,,0.03,WeatherDisplay:10.37,2013-07-13 01:01:00,
2013-07-12 21:06:00,70.9,69.1,29.35,WNW,282,0.0,0.0,94,0.00,CLR,,0.03,WeatherDisplay:10.37,2013-07-13 01:06:00,
2013-07-12 21:11:00,70.9,69.1,29.35,NE,41,2.3,2.3,94,0.00,CLR,,0.03,WeatherDisplay:10.37,2013-07-13 01:11:00,
2013-07-12 21:17:00,70.8,69.0,29.35,NE,34,0.0,0.0,94,0.00,CLR,,0.03,WeatherDisplay:10.37,2013-07-13 01:17:00,
2013-07-12 21:22:00,70.8,69.0,29.35,NE,34,0.0,0.0,94,0.00,CLR,,0.03,WeatherDisplay:10.37,2013-07-13 01:22:00,
2013-07-12 21:27:00,70.8,69.0,29.35,NE,34,2.3,2.3,94,0.00,CLR,,0.03,WeatherDisplay:10.37,2013-07-13 01:27:00,
2013-07-12 21:33:00,70.6,69.1,29.35,NNE,30,0.0,0.0,95,0.00,CLR,,0.03,WeatherDisplay:10.37,2013-07-13 01:33:00,
2013-07-12 21:38:00,70.6,69.1,29.36,NNE,14,2.3,2.3,95,0.00,CLR,,0.03,WeatherDisplay:10.37,2013-07-13 01:38:00,
2013-07-12 21:43:00,70.6,69.1,29.36,NE,37,3.5,3.5,95,0.00,CLR,,0.03,WeatherDisplay:10.37,2013-07-13 01:43:00,
2013-07-12 21:49:00,70.4,68.9,29.36,NNE,14,0.0,0.0,95,0.00,CLR,,0.03,WeatherDisplay:10.37,2013-07-13 01:49:00,
2013-07-12 21:54:00,70.4,68.9,29.37,North,356,4.6,4.6,95,0.00,CLR,,0.03,WeatherDisplay:10.37,2013-07-13 01:54:00,
2013-07-12 21:59:00,70.4,68.9,29.37,NE,56,0.0,0.1,95,0.00,CLR,,0.03,WeatherDisplay:10.37,2013-07-13 01:59:00,
2013-07-12 22:04:00,70.3,68.8,29.37,NE,37,1.1,1.1,95,0.00,CLR,,0.03,WeatherDisplay:10.37,2013-07-13 02:04:00,
2013-07-12 22:10:00,70.3,68.8,29.37,NW,318,0.0,0.0,95,0.00,CLR,,0.03,WeatherDisplay:10.37,2013-07-13 02:10:00,
2013-07-12 22:15:00,70.3,68.8,29.37,NE,38,3.5,3.5,95,0.00,CLR,,0.03,WeatherDisplay:10.37,2013-07-13 02:15:00,
2013-07-12 22:20:00,70.1,68.6,29.37,NE,34,0.0,0.0,95,0.00,CLR,,0.03,WeatherDisplay:10.37,2013-07-13 02:20:00,
2013-07-12 22:26:00,70.1,68.9,29.37,NE,51,4.6,4.6,96,0.00,CLR,,0.03,WeatherDisplay:10.37,2013-07-13 02:26:00,
2013-07-12 22:31:00,70.1,68.9,29.37,NNE,25,3.5,3.5,96,0.00,CLR,,0.03,WeatherDisplay:10.37,2013-07-13 02:31:00,
2013-07-12 22:36:00,69.9,68.7,29.37,North,8,0.0,0.0,96,0.00,CLR,,0.03,WeatherDisplay:10.37,2013-07-13 02:36:00,
2013-07-12 22:42:00,69.9,68.7,29.37,NNE,18,3.5,3.5,96,0.00,CLR,,0.03,WeatherDisplay:10.37,2013-07-13 02:42:00,
2013-07-12 22:47:00,69.9,68.7,29.37,North,6,0.0,0.0,96,0.00,CLR,,0.03,WeatherDisplay:10.37,2013-07-13 02:47:00,
2013-07-12 22:52:00,69.8,68.6,29.38,North,10,2.3,0.0,96,0.00,CLR,,0.03,WeatherDisplay:10.37,2013-07-13 02:52:00,
2013-07-12 22:57:00,69.8,68.6,29.38,NNE,24,0.0,0.0,96,0.00,CLR,,0.03,WeatherDisplay:10.37,2013-07-13 02:57:00,
2013-07-12 23:02:00,69.8,68.6,29.38,NE,55,2.3,2.3,96,0.00,CLR,,0.03,WeatherDisplay:10.37,2013-07-13 03:02:00,
2013-07-12 23:08:00,69.6,68.4,29.38,NNE,28,4.6,0.0,96,0.00,CLR,,0.03,WeatherDisplay:10.37,2013-07-13 03:08:00,
2013-07-12 23:13:00,69.6,68.4,29.38,NNE,18,0.0,0.2,96,0.00,CLR,,0.03,WeatherDisplay:10.37,2013-07-13 03:13:00,
2013-07-12 23:19:00,69.6,68.4,29.38,NNE,18,0.0,0.0,96,0.00,CLR,,0.03,WeatherDisplay:10.37,2013-07-13 03:19:00,
2013-07-12 23:24:00,69.6,68.4,29.38,NE,40,2.3,2.3,96,0.00,CLR,,0.03,WeatherDisplay:10.37,2013-07-13 03:24:00,
2013-07-12 23:29:00,69.6,68.4,29.38,NNE,32,3.5,3.5,96,0.00,CLR,,0.03,WeatherDisplay:10.37,2013-07-13 03:29:00,
2013-07-12 23:34:00,69.6,68.4,29.38,NNE,32,0.0,0.0,96,0.00,CLR,,0.03,WeatherDisplay:10.37,2013-07-13 03:34:00,
2013-07-12 23:40:00,69.4,68.2,29.38,NE,34,0.0,0.0,96,0.00,CLR,,0.03,WeatherDisplay:10.37,2013-07-13 03:40:00,
2013-07-12 23:45:00,69.4,68.2,29.38,NE,34,0.0,0.0,96,0.00,CLR,,0.03,WeatherDisplay:10.37,2013-07-13 03:45:00,
2013-07-12 23:50:00,69.4,68.5,29.38,NE,40,0.0,0.0,97,0.00,CLR,,0.03,WeatherDisplay:10.37,2013-07-13 03:50:00,
2013-07-12 23:56:00,69.4,68.5,29.39,NE,45,0.0,0.0,97,0.00,CLR,,0.03,WeatherDisplay:10.37,2013-07-13 03:56:00,